Temperature
12 11 9 8 7 5 4 3 2 1 0 -0 -1 -2 -2 -3 -4 -4 -5 -6 -6 -7 -7 -8 -8 -8 -9 -9 -9 -10 -10 -11 -11 -11 -10 -10 -10 -10 -10 -10 -10 -9 -9
12 11 9 8 6 5 4 3 2 1 0 -0 -1 -2 -2 -3 -4 -4 -5 -6 -6 -7 -7 -8 -8 -8 -9 -9 -9 -9 -10 -10 -11 -11 -10 -10 -10 -10 -10 -10 -10 -9 -9
12 11 9 8 6 5 4 3 2 1 0 -1 -1 -2 -2 -3 -4 -4 -5 -5 -6 -7 -7 -8 -8 -8 -9 -9 -9 -9 -9 -10 -10 -10 -10 -10 -10 -10 -10 -10 -10 -10 -9
12 10 9 8 7 6 4 3 2 1 0 -1 -1 -2 -2 -3 -4 -4 -5 -5 -6 -6 -7 -8 -8 -8 -9 -9 -9 -9 -9 -9 -10 -10 -10 -10 -10 -10 -11 -11 -11 -10 -9
12 11 10 9 7 5 4 3 2 1 -0 -1 -1 -2 -2 -3 -4 -4 -5 -5 -6 -7 -7 -8 -8 -9 -9 -9 -9 -9 -9 -9 -9 -10 -10 -11 -11 -11 -11 -11 -11 -11 -10
12 11 10 8 7 5 4 3 1 1 -0 -1 -1 -2 -2 -3 -3 -4 -5 -6 -7 -7 -7 -8 -8 -9 -9 -9 -9 -9 -9 -9 -9 -10 -10 -11 -11 -11 -11 -12 -12 -12 -11
12 11 10 8 7 5 4 2 1 1 -0 -1 -1 -2 -2 -3 -4 -4 -5 -6 -7 -7 -8 -8 -9 -9 -9 -9 -9 -9 -9 -9 -10 -10 -10 -10 -11 -11 -11 -12 -12 -12 -12
11 11 10 8 7 5 3 2 1 1 -0 -1 -1 -2 -2 -3 -4 -4 -5 -6 -7 -7 -8 -8 -9 -9 -9 -9 -9 -9 -9 -9 -10 -10 -10 -11 -11 -11 -11 -12 -12 -12 -11
11 11 10 8 6 5 3 3 1 0 -1 -1 -1 -2 -2 -3 -4 -5 -5 -6 -7 -7 -8 -8 -9 -9 -9 -9 -9 -9 -9 -9 -10 -10 -10 -11 -11 -11 -11 -12 -12 -12 -12
10 10 8 7 5 4 3 2 1 0 -1 -2 -2 -2 -3 -3 -4 -5 -5 -6 -7 -7 -8 -8 -9 -9 -9 -9 -9 -9 -10 -10 -10 -10 -10 -10 -11 -11 -11 -12 -12 -13 -13
8 8 7 6 5 4 2 1 0 -1 -1 -2 -2 -2 -3 -3 -4 -5 -6 -7 -7 -8 -8 -8 -9 -9 -9 -9 -9 -10 -10 -10 -10 -10 -11 -11 -11 -11 -11 -12 -12 -13 -13
7 7 6 5 4 2 1 0 -1 -1 -2 -2 -3 -3 -3 -3 -4 -5 -6 -6 -7 -8 -8 -9 -9 -9 -10 -10 -10 -10 -10 -10 -10 -11 -11 -11 -11 -11 -12 -12 -12 -12 -12
7 6 5 4 3 2 1 -0 -1 -2 -2 -2 -3 -3 -3 -3 -4 -5 -6 -7 -7 -8 -9 -9 -9 -10 -10 -10 -10 -11 -11 -11 -11 -11 -11 -12 -12 -12 -12 -12 -12 -12 -11
6 5 4 3 2 0 -1 -1 -2 -2 -2 -2 -3 -3 -3 -4 -4 -5 -6 -7 -7 -8 -9 -9 -9 -10 -10 -10 -10 -10 -11 -11 -12 -12 -12 -12 -12 -12 -12 -12 -12 -12 -11
4 4 3 1 0 -1 -1 -1 -2 -2 -1 -2 -2 -3 -3 -4 -4 -5 -6 -7 -7 -8 -9 -9 -9 -10 -10 -10 -10 -11 -11 -11 -11 -12 -12 -12 -12 -12 -12 -12 -12 -12 -12
3 3 1 0 -1 -1 -2 -2 -3 -3 -3 -3 -3 -3 -4 -4 -5 -6 -7 -7 -8 -9 -9 -9 -10 -10 -10 -11 -11 -11 -11 -11 -12 -12 -12 -12 -12 -12 -12 -12 -12 -12 -12
2 2 0 -1 -2 -2 -2 -3 -3 -3 -4 -4 -4 -4 -4 -5 -6 -6 -7 -8 -8 -9 -9 -10 -10 -10 -11 -11 -11 -11 -11 -12 -12 -12 -12 -12 -12 -12 -12 -12 -12 -12 -12
2 1 -1 -2 -3 -3 -3 -3 -3 -3 -4 -4 -4 -4 -5 -5 -6 -6 -7 -8 -8 -9 -9 -10 -10 -10 -11 -11 -11 -11 -12 -12 -12 -12 -12 -12 -12 -13 -12 -12 -12 -12 -12
1 -0 -1 -2 -3 -4 -4 -4 -4 -4 -4 -4 -5 -5 -5 -6 -6 -7 -7 -8 -8 -9 -9 -10 -10 -11 -11 -11 -11 -12 -12 -12 -12 -12 -12 -12 -12 -12 -12 -12 -12 -12 -12
0 -1 -2 -3 -4 -5 -5 -5 -5 -5 -5 -5 -5 -5 -5 -6 -6 -7 -7 -8 -8 -9 -9 -10 -10 -10 -11 -11 -11 -12 -12 -12 -12 -12 -12 -12 -12 -12 -12 -12 -12 -12 -11
-0 -1 -2 -4 -4 -5 -6 -6 -5 -5 -5 -5 -5 -5 -5 -6 -6 -6 -7 -7 -8 -8 -9 -9 -10 -10 -11 -11 -11 -12 -12 -12 -12 -12 -12 -12 -12 -12 -12 -12 -12 -11 -11
-1 -2 -3 -4 -5 -5 -6 -6 -6 -6 -5 -5 -5 -6 -6 -6 -6 -6 -7 -7 -8 -8 -9 -9 -10 -10 -11 -11 -11 -11 -12 -12 -12 -12 -12 -12 -12 -12 -12 -12 -12 -11 -11
-1 -2 -3 -4 -5 -6 -7 -7 -7 -6 -6 -6 -6 -6 -6 -6 -6 -6 -7 -7 -8 -8 -9 -9 -10 -10 -11 -11 -11 -11 -11 -12 -12 -12 -12 -12 -12 -12 -12 -11 -11 -11 -11
-2 -3 -4 -5 -5 -6 -7 -7 -7 -6 -6 -6 -6 -6 -6 -6 -6 -7 -7 -7 -8 -8 -9 -9 -10 -10 -11 -11 -11 -11 -11 -12 -12 -12 -12 -12 -12 -11 -11 -11 -11 -11 -10
-2 -3 -4 -5 -6 -6 -7 -7 -7 -7 -6 -6 -6 -6 -6 -6 -6 -7 -7 -8 -8 -9 -9 -9 -10 -10 -10 -11 -11 -11 -11 -11 -12 -12 -12 -12 -11 -11 -11 -11 -11 -10 -10
-3 -4 -4 -5 -6 -6 -7 -7 -7 -7 -6 -6 -6 -6 -6 -6 -6 -7 -7 -8 -8 -9 -9 -9 -10 -10 -10 -11 -11 -11 -11 -11 -12 -12 -12 -11 -11 -11 -11 -11 -10 -10 -10
Wind_Speed
20 20 19 18 18 16 16 16 15 12 13 12 12 11 11 11 10 10 11 10 11 12 11 12 14 12 11 10 10 11 12 12 16 17 13 11 10 12 14 15 17 17 18
18 18 19 17 16 17 18 16 14 14 13 13 12 12 12 12 11 11 12 12 12 13 13 12 14 12 12 11 11 13 13 13 14 19 16 11 11 11 11 12 12 15 14
15 17 18 18 18 20 19 16 15 15 14 13 13 13 13 12 11 12 12 12 12 13 13 13 14 13 14 13 13 13 13 14 13 15 16 12 10 9 10 12 13 10 13
15 17 19 21 21 20 18 16 16 15 15 14 14 13 13 12 11 11 11 12 12 13 14 14 14 14 15 15 14 15 14 15 13 13 14 13 10 8 7 10 12 9 11
17 19 22 19 18 17 17 17 16 16 16 14 13 13 12 11 10 11 12 12 13 14 14 14 14 17 20 18 15 13 13 12 11 12 12 12 11 9 8 8 11 11 10
18 21 18 17 17 18 18 17 16 15 14 13 14 13 12 11 17 20 15 12 12 13 13 12 13 16 20 24 26 25 21 15 12 11 11 11 12 10 9 9 10 11 9
18 18 17 17 18 19 18 17 17 16 15 14 14 13 13 14 20 20 21 13 11 11 10 10 11 12 17 12 19 24 21 24 21 14 12 12 11 10 10 11 10 11 12
16 17 17 18 19 17 17 18 17 14 14 14 14 13 12 14 19 20 20 13 9 9 10 10 11 12 13 15 14 13 13 13 16 12 10 11 11 11 10 11 11 11 11
17 18 18 18 18 17 18 18 16 13 13 13 11 12 12 13 18 19 18 8 8 9 10 10 11 11 19 23 15 12 12 11 15 18 18 16 18 18 14 8 7 9 10
18 16 15 16 18 18 18 16 13 12 13 12 11 11 12 11 15 18 17 8 8 9 8 9 15 16 20 22 12 9 11 10 8 9 10 12 10 12 16 7 6 8 8
12 11 13 15 17 16 14 12 12 12 11 11 11 10 10 12 14 17 17 8 8 9 8 7 8 17 20 20 16 8 12 11 5 6 7 7 7 6 7 7 7 7 9
9 11 13 14 14 12 12 12 12 12 11 11 9 9 8 10 13 14 17 16 13 8 8 6 8 17 18 18 14 14 17 11 4 5 6 7 7 7 7 7 8 9 10
9 12 11 12 12 12 13 13 12 11 10 10 9 9 8 7 9 16 16 16 16 9 6 11 14 16 15 10 13 16 12 6 5 6 7 7 7 7 7 7 7 8 9
10 10 9 10 11 11 11 12 12 12 11 11 10 9 8 7 7 7 7 8 11 9 7 9 12 12 10 10 11 9 6 6 7 7 7 7 6 6 7 6 7 7 7
10 9 8 10 10 11 11 11 13 12 13 13 11 9 8 8 10 12 8 7 6 6 4 2 2 4 5 5 5 6 5 6 7 6 7 7 7 8 8 6 6 6 6
9 8 8 8 9 9 9 9 16 15 18 19 16 12 10 11 10 11 12 11 10 8 4 2 3 4 5 6 6 6 6 6 6 6 7 7 7 8 8 7 7 7 8
10 8 7 8 9 10 10 11 9 12 17 17 18 17 14 12 12 11 10 9 8 6 3 3 4 5 5 5 6 6 7 7 6 6 7 7 7 8 8 8 7 7 8
9 11 9 8 8 9 10 10 9 10 9 9 12 17 16 14 12 10 9 6 4 3 3 4 5 5 5 5 6 6 6 7 6 6 6 7 7 7 8 8 8 8 9
8 7 7 7 7 8 8 8 8 9 9 7 5 8 14 13 11 10 8 4 4 4 4 4 4 5 5 5 6 6 6 7 7 6 7 7 7 7 8 8 8 12 10
7 12 9 7 7 8 8 8 9 9 9 8 8 8 7 8 6 6 5 4 4 4 4 5 4 5 5 5 5 6 6 7 7 6 7 7 6 7 8 9 8 8 8
6 7 11 8 7 8 8 9 8 8 8 8 8 9 13 8 8 7 6 5 5 5 5 4 4 4 4 4 5 6 7 7 6 6 6 7 7 7 7 7 8 8 8
5 5 5 6 7 8 8 8 8 8 9 9 6 8 15 8 6 6 6 5 5 4 4 4 4 4 4 4 5 6 6 7 7 6 7 7 7 7 7 7 7 8 8
5 6 6 6 6 10 10 8 8 8 8 8 8 7 7 7 6 6 5 5 4 4 3 3 4 4 4 5 5 6 7 7 7 6 7 7 7 7 7 7 8 9 8
5 6 6 6 7 7 8 8 8 8 8 8 8 8 7 7 6 6 5 4 4 3 3 3 4 5 6 6 5 5 6 7 6 5 7 7 7 7 7 7 8 9 9
5 6 6 7 7 8 8 8 8 8 8 8 8 7 7 6 6 5 5 4 4 3 3 3 3 4 6 7 7 6 9 10 7 5 4 5 6 7 7 7 7 8 8
6 6 6 6 7 7 8 8 8 8 8 8 7 7 7 6 6 5 5 4 3 3 3 3 4 5 6 6 7 8 10 9 8 9 5 4 5 6 7 6 8 8 8
Wind_Direction
211 210 212 211 209 208 210 211 210 208 207 211 213 216 222 226 226 229 236 239 243 250 251 251 254 254 257 257 255 255 255 255 268 280 281 282 276 280 288 288 290 289 290
212 209 212 210 206 208 213 211 207 208 208 211 213 217 223 227 227 229 238 243 243 250 253 253 257 259 256 257 258 257 257 255 260 275 282 282 277 278 281 286 292 293 288
209 210 212 211 208 211 212 209 206 207 208 210 212 218 224 227 229 232 236 242 245 248 251 253 257 257 261 261 260 262 261 261 257 265 277 279 277 277 282 288 287 283 287
210 212 214 214 213 212 209 206 205 205 207 210 214 219 223 227 230 235 238 243 247 251 252 253 255 254 258 262 265 262 263 264 262 263 270 276 276 273 276 288 294 290 291
212 216 219 216 213 210 207 206 204 205 208 209 213 219 223 226 231 234 238 244 248 253 254 253 254 260 263 269 271 269 267 267 268 267 270 275 277 281 280 282 289 296 291
216 221 220 214 210 209 208 205 203 205 206 206 212 217 222 229 241 247 248 242 247 251 257 256 258 267 274 281 285 288 287 283 276 273 275 274 275 274 276 279 285 292 293
221 223 218 213 212 211 207 203 204 204 203 208 213 216 224 232 243 252 258 257 250 250 252 259 269 271 281 279 283 287 288 288 286 280 274 269 271 269 271 277 275 276 278
224 225 220 214 213 208 205 206 206 202 204 208 212 215 223 234 243 252 260 262 257 251 249 253 262 268 273 278 275 273 270 270 274 276 264 265 267 266 259 263 271 277 276
230 228 221 215 213 207 207 207 203 199 203 208 210 213 221 234 243 252 259 255 257 255 256 257 261 263 278 288 287 280 280 276 279 281 281 280 281 285 286 283 281 284 286
237 232 222 214 212 210 209 205 198 196 202 204 212 213 219 229 241 250 257 252 255 261 260 260 272 278 286 293 290 281 284 285 278 285 290 292 292 293 295 285 267 272 276
245 233 222 215 213 211 205 198 191 193 194 200 210 216 219 229 242 249 254 245 248 259 265 262 262 284 293 297 300 286 287 298 283 273 275 278 281 277 274 264 247 246 255
241 231 223 214 209 206 198 194 189 189 193 200 208 220 224 230 239 246 251 254 258 255 262 264 269 289 296 302 306 303 306 314 300 284 282 282 282 281 278 271 260 250 245
242 233 223 211 205 199 194 190 187 189 195 200 205 218 225 221 231 242 250 257 264 264 261 277 287 296 305 309 307 307 311 308 294 290 286 283 280 277 282 283 276 266 261
250 239 220 207 203 199 197 193 191 193 196 199 204 214 219 218 220 229 239 254 259 268 275 282 290 299 303 301 305 308 302 288 288 286 287 287 287 288 286 284 288 291 286
253 240 220 208 202 201 202 201 199 201 198 197 202 201 202 216 225 225 223 227 230 242 257 248 271 293 296 296 296 295 291 293 296 289 290 293 294 295 293 290 285 285 279
257 241 222 209 202 199 200 207 215 209 211 211 208 203 210 218 230 233 238 247 257 264 261 255 271 279 285 290 297 300 299 297 294 292 293 292 294 295 296 294 288 284 284
252 244 223 211 205 201 199 199 201 211 216 217 215 214 213 217 226 233 238 244 251 258 245 256 266 272 278 284 287 290 294 295 294 293 293 294 294 294 295 295 294 291 288
255 247 232 214 206 203 202 200 194 191 196 208 216 217 216 218 223 227 231 233 237 236 227 248 259 266 272 279 285 289 292 296 295 294 292 292 293 295 295 294 293 291 292
257 246 230 212 204 202 199 196 193 191 192 189 184 209 213 213 215 221 220 205 215 231 237 247 254 262 269 276 282 287 290 292 292 292 293 291 291 293 293 293 293 296 296
257 250 237 214 201 197 194 195 195 192 190 190 194 195 189 191 199 207 207 201 213 227 234 244 253 259 266 272 280 286 290 292 292 290 292 293 292 290 292 293 295 296 294
261 251 242 226 201 195 194 196 194 192 192 194 197 193 187 187 196 201 205 209 215 223 229 238 248 258 263 270 274 280 285 290 290 289 292 294 294 295 293 292 294 295 295
254 241 227 217 201 198 197 194 192 194 194 193 187 193 197 188 191 199 206 212 215 217 220 228 241 249 254 261 270 277 282 287 289 290 291 293 293 294 295 297 299 301 301
249 238 229 218 204 206 205 195 193 195 194 191 185 184 188 186 191 199 204 205 207 213 217 223 240 256 262 266 267 269 275 281 283 282 288 295 297 298 299 300 302 306 306
242 234 227 216 204 200 198 194 194 194 190 188 187 186 187 186 189 196 194 193 199 209 215 222 238 255 268 280 281 277 275 281 280 276 281 288 295 300 302 303 304 306 306
238 232 224 214 206 201 198 194 192 191 188 188 188 186 183 182 185 187 183 185 190 203 215 226 243 260 273 283 287 286 293 304 309 301 287 293 296 299 303 305 309 311 312
237 229 219 209 204 200 196 193 192 189 187 186 184 182 180 179 181 180 177 178 186 199 214 234 252 266 280 286 286 295 309 315 318 321 318 297 302 305 311 311 315 318 319
Height
1444 1443 1443 1444 1446 1447 1448 1450 1452 1453 1453 1454 1454 1454 1454 1453 1452 1450 1448 1447 1445 1443 1441 1438 1435 1434 1430 1427 1424 1420 1415 1411 1402 1393 1391 1387 1384 1380 1376 1373 1369 1365 1361
1435 1434 1434 1434 1435 1436 1437 1440 1442 1443 1444 1445 1445 1445 1445 1444 1444 1442 1440 1439 1437 1434 1432 1430 1427 1425 1422 1419 1415 1411 1406 1402 1397 1388 1382 1380 1376 1373 1369 1365 1361 1358 1354
1426 1424 1424 1424 1424 1425 1427 1429 1431 1433 1434 1435 1435 1435 1436 1436 1435 1434 1432 1430 1428 1426 1424 1421 1419 1417 1413 1410 1406 1402 1397 1393 1389 1382 1375 1372 1369 1366 1362 1357 1354 1350 1347
1416 1414 1413 1412 1413 1415 1417 1419 1421 1423 1424 1425 1426 1426 1427 1427 1426 1425 1424 1422 1420 1418 1416 1413 1411 1408 1404 1401 1397 1393 1389 1385 1380 1375 1369 1365 1361 1358 1355 1351 1345 1342 1339
1406 1403 1401 1402 1403 1404 1406 1408 1410 1412 1413 1415 1416 1417 1418 1418 1418 1417 1416 1414 1412 1409 1407 1405 1402 1399 1396 1393 1389 1385 1381 1377 1372 1367 1362 1358 1354 1352 1348 1345 1340 1335 1331
1396 1392 1392 1391 1391 1392 1394 1397 1399 1401 1403 1405 1406 1408 1409 1409 1409 1409 1408 1405 1403 1401 1399 1397 1394 1391 1388 1385 1382 1379 1375 1371 1365 1361 1356 1352 1348 1345 1342 1339 1335 1331 1325
1386 1383 1381 1380 1380 1381 1383 1386 1388 1390 1393 1395 1397 1399 1400 1401 1401 1401 1400 1398 1396 1394 1391 1389 1386 1382 1380 1376 1372 1369 1366 1363 1360 1355 1349 1345 1342 1339 1336 1332 1329 1325 1321
1377 1374 1371 1369 1369 1371 1373 1375 1377 1380 1383 1385 1388 1390 1391 1392 1393 1393 1392 1390 1388 1386 1384 1381 1378 1374 1371 1368 1364 1360 1356 1353 1350 1347 1343 1338 1335 1332 1330 1326 1323 1318 1314
1367 1364 1361 1360 1359 1360 1361 1364 1368 1371 1374 1377 1380 1382 1383 1384 1385 1385 1384 1382 1380 1378 1376 1374 1371 1367 1364 1361 1358 1353 1349 1345 1342 1339 1336 1332 1329 1326 1323 1320 1316 1313 1307
1358 1355 1353 1351 1350 1350 1352 1356 1359 1362 1366 1369 1372 1374 1376 1377 1378 1378 1377 1375 1373 1371 1369 1366 1364 1361 1358 1355 1351 1347 1342 1338 1334 1330 1328 1324 1322 1319 1316 1313 1310 1307 1303
1350 1346 1343 1342 1341 1342 1345 1348 1351 1355 1358 1361 1364 1367 1368 1370 1370 1370 1370 1368 1366 1364 1361 1359 1357 1354 1351 1348 1345 1341 1337 1333 1328 1324 1320 1317 1314 1312 1309 1306 1304 1301 1298
1341 1337 1334 1333 1333 1334 1337 1340 1344 1347 1350 1353 1356 1359 1361 1362 1363 1363 1363 1362 1360 1358 1355 1353 1350 1348 1345 1342 1339 1335 1332 1328 1323 1319 1315 1311 1308 1305 1302 1300 1297 1294 1291
1332 1328 1326 1325 1325 1326 1328 1331 1335 1338 1342 1345 1348 1351 1353 1355 1356 1356 1356 1355 1354 1352 1349 1347 1344 1342 1339 1335 1332 1329 1326 1322 1318 1314 1310 1306 1303 1299 1296 1293 1290 1287 1284
1325 1321 1318 1317 1317 1318 1320 1323 1326 1329 1333 1336 1340 1343 1346 1348 1349 1349 1349 1348 1347 1346 1343 1341 1339 1336 1333 1330 1327 1324 1320 1317 1313 1309 1305 1301 1298 1294 1291 1288 1284 1280 1277
1317 1313 1311 1310 1310 1311 1313 1316 1319 1322 1326 1330 1333 1337 1339 1341 1343 1343 1343 1342 1341 1340 1338 1335 1333 1330 1327 1325 1322 1319 1316 1312 1309 1305 1301 1297 1293 1290 1286 1283 1279 1276 1272
1310 1307 1304 1303 1303 1304 1307 1310 1313 1317 1321 1324 1327 1331 1333 1335 1337 1337 1337 1337 1336 1335 1333 1330 1328 1325 1323 1320 1317 1314 1311 1308 1304 1301 1297 1293 1289 1285 1282 1278 1275 1271 1268
1305 1301 1298 1297 1297 1298 1300 1303 1306 1311 1315 1318 1321 1324 1327 1329 1330 1331 1332 1331 1331 1329 1327 1325 1323 1321 1318 1316 1313 1311 1307 1304 1301 1297 1293 1290 1286 1282 1278 1274 1270 1267 1263
1299 1296 1293 1291 1291 1292 1294 1297 1300 1304 1308 1311 1315 1318 1321 1323 1325 1326 1326 1326 1325 1324 1322 1320 1318 1316 1314 1312 1310 1307 1304 1301 1297 1294 1290 1286 1282 1278 1274 1270 1266 1263 1259
1293 1290 1288 1286 1286 1287 1289 1292 1295 1298 1302 1306 1309 1313 1315 1318 1319 1320 1321 1320 1319 1319 1318 1316 1314 1312 1310 1308 1306 1303 1300 1297 1294 1290 1287 1283 1279 1275 1271 1267 1263 1259 1256
1288 1284 1282 1281 1281 1282 1284 1287 1290 1293 1296 1300 1303 1306 1310 1312 1314 1315 1315 1315 1315 1314 1313 1312 1310 1308 1306 1304 1302 1299 1297 1294 1290 1287 1283 1280 1276 1272 1268 1263 1259 1255 1251
1282 1279 1277 1276 1275 1277 1279 1281 1285 1288 1291 1294 1298 1301 1304 1306 1308 1309 1310 1310 1310 1310 1309 1308 1306 1304 1302 1300 1298 1296 1293 1290 1287 1284 1280 1277 1273 1269 1265 1260 1256 1252 1248
1278 1274 1272 1271 1271 1272 1274 1276 1280 1283 1286 1290 1293 1296 1299 1301 1303 1305 1305 1306 1306 1306 1305 1304 1302 1301 1299 1297 1295 1293 1290 1287 1284 1281 1277 1274 1270 1266 1262 1258 1253 1249 1245
1273 1270 1268 1267 1267 1268 1270 1272 1275 1278 1282 1285 1289 1292 1295 1297 1299 1300 1301 1302 1302 1302 1301 1300 1299 1297 1296 1294 1292 1290 1287 1284 1281 1278 1275 1271 1267 1263 1259 1255 1251 1247 1243
1268 1265 1263 1262 1262 1263 1265 1267 1270 1274 1278 1281 1284 1287 1290 1293 1295 1297 1298 1298 1299 1298 1298 1297 1296 1294 1293 1291 1289 1287 1284 1282 1279 1276 1273 1269 1265 1261 1257 1253 1249 1245 1241
1263 1261 1259 1258 1258 1259 1261 1264 1267 1270 1274 1277 1280 1283 1287 1289 1292 1293 1294 1295 1295 1295 1295 1294 1293 1292 1290 1288 1286 1284 1282 1280 1277 1274 1271 1267 1264 1260 1256 1252 1248 1244 1240
1258 1256 1255 1254 1254 1255 1257 1260 1263 1266 1270 1273 1277 1280 1283 1286 1288 1290 1291 1292 1292 1293 1292 1292 1291 1290 1288 1286 1284 1282 1280 1278 1276 1273 1270 1266 1263 1259 1256 1252 1248 1244 1240